Regional Weather Roundup
Issued by NWS

Home | Current Version | Previous Version | Graphics & Text | Print | Product List | Glossary On
Versions: 1 2 3 4 5 6 7 8 9 10 11 12 13 14 15 16 17 18 19 20 21 22 23 24 25 26 27
000
ASUS45 KBOI 231410
RWRID

IDAHO REGIONAL WEATHER ROUNDUP
NATIONAL WEATHER SERVICE BOISE ID
800 AM MDT MON OCT 23 2017

NOTE: "FAIR" INDICATES FEW OR NO CLOUDS BELOW 12000 FEET
WITH NO SIGNIFICANT WEATHER AND/OR OBSTRUCTIONS TO VISIBILITY

IDZ012-014-231500-
SOUTHWEST IDAHO


CITY           SKY/WX    TMP DP  RH WIND       PRES   REMARKS
BOISE          CLEAR     38  37  97 S5        30.59R WCI  34
CALDWELL       CLEAR     40  39  97 CALM        N/A
MOUNTAIN HOME  CLEAR     38  38 100 W5        30.59R WCI  35
$$

IDZ016-017-231500-
SOUTHCENTRAL IDAHO


CITY           SKY/WX    TMP DP  RH WIND       PRES   REMARKS
BURLEY         CLEAR     44  41  89 SW10      30.54R
JEROME         CLEAR     42  42 100 SW6       30.57R
TWIN FALLS     CLEAR     43  42  97 SW12      30.57R
$$

IDZ019>023-231500-
SOUTHEAST IDAHO


CITY           SKY/WX    TMP DP  RH WIND       PRES   REMARKS
IDAHO FALLS    CLOUDY    37  36  96 SW5       30.55S FOG     WCI  33
POCATELLO      CLOUDY    43  41  93 SW10      30.57R
REXBURG        CLOUDY    30  29  96 CALM      30.55R
$$

IDZ006-010-011-018-031-032-231500-
CENTRAL IDAHO MOUNTAINS


CITY           SKY/WX    TMP DP  RH WIND       PRES   REMARKS
MCCALL         FOG       29  28  96 CALM      30.57R VSB 3/4
HAILEY         PTCLDY    34  27  75 W12       30.57R WCI  25
STANLEY          N/A     27  25  92 SE3       30.59R
SALMON         CLOUDY    35  28  75 SE5       30.58R WCI  31
CHALLIS        CLEAR     30  25  81 CALM      30.57R
$$

IDZ002-004-006-007-026-231500-
NORTHERN IDAHO


CITY           SKY/WX    TMP DP  RH WIND       PRES   REMARKS
LEWISTON       CLEAR     43  38  82 SW3       30.60R
LOWELL           N/A     43  42  97 CALM      30.65R
COEUR D`ALENE  CLEAR     38  35  89 S5        30.58R WCI  34
MULLAN PASS    PTCLDY    29  26  89 SW6       30.53R WCI  23
$$




USA.gov is the U.S. government's official web portal to all federal, state and local government web resources and services.